Voltar ao catálogo

DYNAMICS EXPLORER 1

AtivoCiênciaHEO
NORAD 12624·PAYLOAD·🇺🇸 United States

Lançado Aug 3, 1981 de Vandenberg Space Force Base

Loading…

Próximas Passagens (próximas 24 horas)

TLE

AtualizadoSource: Space-Track

Época: Sep 14, 2026, 11:55 UTC

1 12624U 81070A   26257.49680262  .00000108  00000-0  41578-3 0  9997
2 12624  90.9436  48.5988 6231520 171.2658 209.2781  3.52938174728300

Acompanhe DYNAMICS EXPLORER 1 em tempo real com AllMySat

Download on the App Store